Wind_Speed
19 20 20 20 22 23 23 24 25 26 26 28 30 31 32 33 36 37 37 37 39 41 41 42 43 43 44 44 44 45 44 45 45 46 46 46 46 46 46 47 46 46 46 45
20 20 20 20 21 22 23 24 25 25 26 27 28 29 30 31 34 35 35 35 37 38 39 40 42 43 43 44 44 43 43 44 45 45 45 45 46 46 46 46 46 46 46 46
20 20 21 21 20 21 22 23 24 25 26 27 27 28 28 30 32 33 35 35 34 35 36 37 39 40 41 42 43 44 43 43 44 45 45 45 46 46 46 47 47 46 46 46
19 19 20 21 21 21 22 23 24 25 26 27 27 28 27 29 30 31 33 34 34 34 35 35 37 39 39 39 40 42 43 44 43 44 44 45 46 46 46 47 47 48 47 47
18 18 18 19 20 21 22 23 24 24 25 26 26 28 27 28 29 30 31 33 33 33 34 36 36 38 39 40 39 40 41 42 43 43 43 44 46 46 46 47 48 48 47 47
19 19 19 18 19 20 21 22 22 23 24 25 24 27 27 27 28 29 31 33 33 33 34 35 36 37 38 39 40 40 40 41 42 42 43 43 45 45 46 46 47 49 49 49
17 18 18 17 17 18 19 20 21 22 23 23 23 25 25 26 27 28 30 32 33 34 34 35 35 37 37 37 38 40 40 41 41 42 43 44 44 44 44 45 45 47 48 49
16 16 16 16 16 17 18 19 20 22 22 22 22 24 24 24 25 27 29 31 33 34 35 34 34 35 36 37 37 39 40 40 41 42 42 43 44 44 44 44 44 46 46 47
16 15 16 16 16 17 17 17 18 20 22 22 22 22 23 23 24 26 28 29 31 33 34 33 32 32 33 35 35 36 37 38 39 40 40 41 41 42 42 42 42 44 45 45
17 17 16 16 17 17 18 18 19 20 21 22 22 21 22 22 24 24 25 27 29 31 32 32 32 32 32 33 33 34 35 35 36 37 37 38 39 40 40 40 40 41 41 42
17 17 16 17 17 17 18 19 20 21 21 22 23 22 22 22 23 24 24 25 26 28 29 28 30 30 30 30 31 33 33 33 32 34 36 36 37 38 38 38 40 41 40 40
17 17 16 16 17 17 18 18 19 20 20 22 24 23 23 23 22 23 24 24 25 25 25 26 27 28 29 29 30 31 32 31 31 32 34 34 34 35 36 37 38 37 37 39
17 17 17 16 16 17 17 17 18 19 20 21 23 23 23 23 22 22 23 24 24 24 25 25 26 26 26 27 28 29 29 30 31 32 32 32 33 34 35 36 35 34 35 36
17 17 18 17 17 17 17 17 18 19 20 22 22 23 22 22 22 22 22 23 23 23 24 25 26 26 25 25 25 27 27 29 29 30 30 30 31 32 33 32 32 32 33 35
17 18 17 18 18 18 18 18 19 20 21 22 21 21 21 20 21 21 22 23 22 22 22 23 24 24 24 24 23 24 24 25 26 27 28 27 28 29 29 29 30 32 33 34
18 18 17 18 18 18 17 16 18 19 20 20 20 20 20 21 20 21 21 21 22 22 21 22 22 23 23 23 23 22 22 22 25 26 26 27 27 27 28 28 30 31 31 33
18 18 18 18 18 18 18 17 18 19 19 20 20 19 20 21 21 21 21 21 22 21 22 22 22 21 21 21 21 21 22 22 23 24 24 25 27 28 28 28 29 29 30 31
18 19 19 19 18 18 17 17 18 18 19 19 19 20 21 21 21 21 21 22 22 22 23 22 21 20 19 19 20 21 21 20 21 22 23 24 25 26 27 27 27 27 28 29
18 18 19 20 19 18 17 17 18 18 18 18 19 20 21 22 21 21 21 22 22 22 22 21 20 20 19 18 18 20 20 20 20 22 22 22 24 24 25 26 26 25 26 27
18 18 18 19 19 19 18 18 18 18 18 18 19 20 22 22 21 21 22 22 22 23 22 21 20 19 19 18 18 18 18 19 20 21 21 21 21 22 22 22 23 25 25 26
19 19 19 19 19 19 19 19 18 18 18 19 20 21 22 22 22 22 22 22 22 22 22 21 20 20 19 18 17 17 17 18 19 19 20 21 21 21 21 21 22 23 25 26
19 19 19 19 19 18 18 18 18 18 19 19 20 22 22 23 23 23 23 23 23 22 22 21 20 20 19 18 17 18 18 18 19 19 19 20 20 20 21 21 21 22 24 25
18 18 19 19 19 19 18 18 18 19 19 20 21 22 23 23 23 22 22 22 22 22 22 21 21 20 19 18 18 19 18 19 19 20 20 20 20 21 22 21 21 22 22 23
17 17 18 18 18 18 18 18 19 20 20 21 22 22 23 23 22 22 22 21 21 21 21 21 21 20 19 19 19 19 19 19 20 20 20 20 21 21 21 21 21 21 21 21
16 17 17 18 18 18 17 18 19 20 21 21 22 22 22 22 22 22 22 22 21 21 20 20 20 20 20 20 20 19 20 20 20 20 20 20 20 20 19 19 19 19 19 20
16 17 17 17 17 18 18 18 19 20 20 21 21 21 22 22 21 21 22 21 21 21 20 20 20 20 20 20 19 19 19 19 18 18 18 18 18 18 18 19 19 19 20 20
Wind_Direction
266 263 262 261 260 261 262 264 266 266 268 268 265 265 263 262 261 260 262 262 261 260 260 259 259 259 258 258 259 258 258 256 256 255 255 256 255 255 255 255 255 255 255 254
268 264 264 265 264 263 265 266 267 267 268 270 269 266 266 264 262 262 262 264 264 262 261 262 261 260 260 260 259 257 258 257 256 256 256 255 254 254 254 255 254 254 255 254
271 266 267 269 267 267 269 270 270 270 270 271 271 268 266 265 264 264 264 265 266 266 265 264 263 262 261 260 260 258 257 257 256 257 256 254 253 253 253 253 254 253 253 253
270 270 269 270 267 268 270 271 272 272 273 273 273 272 269 268 267 267 267 268 268 267 267 267 265 263 262 261 261 260 258 257 257 257 257 255 254 254 253 254 253 252 253 254
268 269 271 270 269 270 270 271 273 274 275 275 276 276 272 271 271 272 272 272 271 269 267 266 266 265 263 262 261 261 258 257 258 258 258 256 255 255 254 254 254 252 251 251
268 270 272 271 269 270 271 273 274 274 276 279 280 282 279 277 276 277 278 277 273 270 270 268 266 265 265 264 263 262 260 259 259 259 259 258 256 256 256 256 255 252 251 251
267 268 270 269 269 271 273 275 277 278 279 281 283 284 284 284 284 283 282 281 279 276 274 272 268 266 266 265 266 265 264 262 260 259 260 260 258 258 257 257 255 254 252 251
271 270 270 269 272 276 277 277 279 281 283 285 285 286 290 290 290 289 287 286 283 280 279 276 272 269 267 266 266 266 265 264 262 261 261 262 260 258 258 256 254 253 251 251
271 271 270 270 272 275 278 279 281 284 286 289 291 291 292 296 294 293 290 288 286 284 282 278 276 274 270 268 267 265 264 264 264 263 262 261 260 258 258 257 254 253 252 252
269 271 271 271 272 274 278 282 285 287 290 292 294 295 297 298 298 298 295 290 290 289 286 280 278 277 274 271 267 265 264 265 266 263 261 260 259 258 259 259 256 255 255 255
270 271 271 272 272 276 279 283 285 288 290 294 295 297 301 302 302 302 299 298 297 295 290 284 284 281 278 274 269 266 265 266 265 262 261 261 259 259 261 260 257 256 257 255
271 270 272 274 276 277 280 285 288 289 292 293 297 301 302 304 304 303 301 302 301 297 292 287 285 282 279 275 270 267 266 266 263 261 261 262 260 260 260 259 257 257 255 254
269 271 273 274 278 279 280 284 289 291 291 295 300 304 305 307 308 304 303 304 303 298 292 288 285 283 283 278 273 270 268 267 264 262 262 262 261 261 260 258 257 255 253 252
268 271 272 274 278 279 280 285 290 292 294 297 301 304 305 305 308 305 305 306 305 300 295 291 289 285 283 279 275 270 269 266 263 262 262 262 261 260 259 259 256 254 254 252
267 271 271 274 276 277 279 284 287 292 297 300 303 304 305 307 307 305 306 307 306 306 303 297 292 287 283 278 273 270 270 265 262 261 261 260 261 261 261 259 257 255 254 252
267 271 274 275 278 280 282 285 286 290 296 301 303 304 304 309 306 304 306 307 308 309 309 304 297 292 286 280 275 273 270 266 261 259 260 261 261 261 260 259 255 253 252 251
269 272 274 277 281 281 280 283 287 291 296 299 300 302 303 307 306 304 304 305 308 308 309 307 303 297 288 283 277 271 272 268 263 262 263 264 259 259 259 257 254 252 251 251
270 271 275 278 280 281 283 283 285 289 293 297 300 301 304 307 307 305 304 305 305 307 308 309 307 301 293 285 279 274 273 269 265 265 268 266 262 260 259 258 254 252 250 249
270 273 277 279 279 280 285 286 286 288 291 296 300 302 303 305 306 306 305 305 304 305 307 308 308 304 298 289 282 279 276 273 270 270 270 268 265 262 260 257 255 253 251 249
270 273 276 278 279 282 287 289 289 289 291 295 298 301 304 305 304 304 305 305 305 303 305 308 308 306 301 293 285 283 279 277 276 273 270 270 270 265 263 260 257 254 250 250
271 273 275 276 278 281 286 288 290 291 294 295 297 300 303 304 303 303 303 303 306 305 304 305 305 304 303 296 289 285 282 278 276 275 272 272 272 269 266 263 260 255 253 254
271 273 273 273 276 281 284 287 289 292 294 297 298 300 302 303 303 303 303 303 305 305 305 304 304 302 301 297 292 289 285 281 280 278 275 273 271 270 270 266 261 256 254 254
272 274 272 271 275 278 280 284 289 294 297 298 299 299 300 301 302 302 303 304 305 304 304 303 302 301 299 296 293 291 287 285 283 280 279 276 273 273 270 266 260 255 254 253
272 273 270 270 272 276 280 284 288 293 297 300 300 299 299 300 300 300 303 304 305 304 303 302 301 298 296 295 293 291 288 284 282 279 278 276 274 273 268 262 258 256 254 254
271 271 271 270 273 275 279 284 289 293 297 299 302 302 302 300 299 299 299 301 302 302 302 301 300 298 295 293 291 289 287 284 282 280 276 273 272 269 264 260 258 256 256 257
272 271 272 273 273 275 279 284 288 292 296 299 301 302 303 303 303 299 299 298 299 300 299 298 297 296 295 291 289 288 288 286 283 279 276 273 272 266 264 261 259 257 257 258
Height
5697 5698 5697 5697 5697 5698 5697 5697 5697 5697 5695 5695 5695 5695 5696 5695 5694 5695 5695 5696 5697 5697 5698 5698 5699 5700 5701 5702 5703 5704 5705 5705 5706 5707 5709 5710 5711 5712 5714 5715 5716 5717 5719 5720
5692 5692 5693 5692 5692 5692 5691 5691 5691 5691 5689 5688 5688 5688 5687 5686 5686 5686 5686 5686 5687 5687 5687 5687 5688 5688 5689 5690 5691 5692 5692 5694 5695 5696 5697 5698 5700 5701 5702 5703 5705 5706 5708 5710
5687 5688 5687 5687 5687 5686 5686 5686 5685 5684 5683 5682 5681 5681 5680 5679 5678 5677 5677 5676 5676 5676 5676 5676 5676 5676 5677 5678 5679 5680 5681 5682 5684 5684 5685 5686 5688 5690 5691 5692 5694 5696 5697 5700
5681 5682 5681 5681 5681 5680 5680 5680 5679 5678 5677 5675 5675 5672 5673 5671 5670 5669 5668 5667 5667 5666 5666 5665 5665 5665 5666 5666 5667 5668 5669 5671 5672 5673 5674 5675 5677 5679 5681 5682 5683 5685 5687 5689
5676 5677 5676 5676 5676 5675 5675 5674 5673 5672 5670 5669 5668 5665 5666 5665 5663 5662 5660 5659 5657 5656 5655 5654 5654 5654 5654 5654 5655 5656 5657 5658 5660 5661 5662 5664 5665 5667 5669 5670 5671 5673 5675 5677
5671 5671 5671 5670 5670 5669 5669 5668 5667 5666 5664 5663 5662 5660 5659 5657 5656 5654 5652 5650 5648 5647 5645 5644 5643 5642 5642 5643 5644 5644 5645 5647 5648 5650 5651 5652 5654 5655 5657 5658 5660 5661 5663 5665
5666 5666 5665 5665 5664 5664 5663 5663 5661 5659 5658 5657 5656 5653 5653 5651 5648 5646 5644 5641 5639 5637 5635 5633 5632 5631 5631 5632 5632 5633 5634 5635 5637 5638 5639 5640 5641 5643 5645 5646 5648 5649 5651 5653
5661 5661 5660 5660 5660 5659 5657 5657 5656 5654 5653 5652 5650 5647 5647 5644 5641 5638 5635 5632 5630 5628 5625 5622 5620 5619 5619 5620 5621 5622 5623 5624 5625 5627 5628 5629 5629 5631 5633 5634 5635 5637 5639 5641
5655 5656 5656 5655 5654 5654 5652 5651 5651 5649 5647 5645 5644 5642 5641 5637 5634 5631 5627 5624 5621 5619 5616 5614 5611 5610 5609 5609 5610 5611 5612 5614 5615 5616 5617 5617 5618 5620 5621 5623 5624 5625 5627 5629
5650 5650 5650 5650 5649 5648 5648 5646 5645 5643 5640 5639 5638 5636 5634 5630 5627 5624 5620 5617 5614 5611 5607 5605 5603 5601 5601 5601 5601 5602 5603 5604 5604 5605 5605 5607 5608 5610 5611 5612 5613 5614 5616 5618
5645 5645 5645 5644 5643 5643 5643 5641 5639 5637 5636 5633 5631 5632 5628 5624 5621 5617 5614 5610 5606 5603 5599 5598 5595 5593 5592 5592 5592 5593 5594 5595 5595 5596 5596 5598 5599 5600 5601 5602 5603 5604 5606 5608
5640 5639 5639 5639 5638 5637 5636 5635 5634 5633 5631 5628 5625 5628 5622 5618 5614 5611 5607 5604 5600 5596 5593 5590 5588 5586 5585 5584 5584 5585 5585 5586 5587 5587 5588 5589 5590 5591 5592 5592 5593 5595 5597 5599
5634 5634 5634 5633 5635 5633 5631 5630 5628 5626 5625 5622 5620 5622 5616 5612 5608 5605 5602 5598 5594 5590 5587 5584 5582 5579 5578 5577 5577 5577 5578 5578 5579 5579 5580 5581 5582 5583 5583 5584 5585 5587 5588 5591
5629 5629 5630 5629 5628 5626 5625 5625 5623 5620 5618 5617 5615 5614 5611 5606 5603 5600 5596 5592 5589 5584 5581 5578 5576 5573 5572 5570 5570 5570 5570 5570 5571 5571 5572 5573 5574 5575 5576 5576 5577 5579 5581 5583
5624 5624 5624 5623 5622 5621 5620 5619 5617 5615 5613 5612 5610 5607 5605 5601 5598 5594 5591 5587 5584 5580 5576 5572 5570 5568 5566 5565 5564 5563 5563 5563 5564 5564 5565 5566 5567 5568 5568 5569 5570 5572 5573 5576
5618 5618 5618 5618 5617 5615 5614 5613 5611 5610 5608 5606 5604 5602 5600 5597 5593 5590 5587 5583 5580 5576 5572 5568 5565 5562 5561 5559 5558 5558 5557 5557 5558 5558 5559 5560 5560 5561 5561 5562 5563 5564 5566 5568
5612 5612 5612 5612 5611 5610 5609 5608 5606 5605 5603 5601 5599 5598 5594 5591 5588 5585 5582 5579 5576 5572 5568 5565 5561 5558 5556 5554 5554 5553 5552 5552 5552 5552 5553 5553 5554 5554 5555 5556 5556 5557 5559 5561
5606 5606 5606 5606 5606 5605 5607 5603 5601 5600 5598 5596 5594 5591 5589 5586 5583 5580 5577 5574 5571 5568 5564 5560 5557 5554 5551 5550 5549 5548 5547 5547 5546 5546 5546 5547 5547 5547 5548 5548 5549 5550 5551 5553
5601 5600 5600 5600 5599 5599 5600 5597 5595 5594 5593 5591 5588 5586 5583 5580 5578 5575 5572 5569 5566 5563 5560 5556 5553 5550 5547 5545 5544 5543 5542 5542 5541 5541 5541 5541 5540 5541 5541 5541 5542 5543 5544 5546
5595 5595 5595 5594 5593 5593 5594 5592 5589 5589 5587 5585 5583 5580 5577 5575 5573 5571 5567 5564 5561 5558 5555 5551 5548 5545 5543 5541 5539 5538 5537 5537 5536 5535 5535 5534 5534 5534 5534 5535 5535 5536 5538 5539
5589 5588 5588 5588 5587 5587 5587 5585 5584 5584 5583 5579 5576 5574 5572 5569 5567 5565 5561 5559 5555 5552 5549 5546 5543 5541 5538 5536 5535 5533 5532 5531 5531 5530 5529 5529 5528 5528 5528 5528 5529 5529 5530 5531
5582 5582 5582 5582 5581 5584 5581 5580 5579 5578 5575 5573 5570 5568 5566 5563 5560 5558 5555 5553 5550 5547 5544 5541 5539 5536 5533 5531 5530 5528 5527 5526 5525 5524 5523 5523 5522 5522 5522 5522 5522 5522 5523 5524
5576 5577 5576 5577 5578 5576 5575 5574 5573 5571 5569 5567 5565 5562 5560 5557 5555 5552 5550 5547 5544 5542 5539 5536 5534 5531 5529 5526 5525 5523 5522 5520 5519 5518 5517 5517 5516 5516 5516 5516 5516 5516 5517 5518
5570 5569 5569 5570 5570 5570 5569 5568 5567 5565 5563 5561 5559 5556 5554 5551 5549 5546 5544 5541 5539 5536 5533 5531 5529 5526 5524 5521 5519 5518 5516 5515 5513 5512 5512 5511 5510 5510 5509 5509 5509 5510 5511 5512
5564 5563 5563 5563 5564 5563 5563 5562 5560 5559 5557 5555 5553 5550 5547 5545 5542 5540 5538 5536 5533 5530 5528 5526 5523 5521 5519 5517 5514 5512 5511 5509 5508 5506 5506 5505 5504 5504 5503 5503 5503 5504 5505 5506
5559 5558 5558 5558 5558 5557 5557 5556 5555 5553 5551 5549 5547 5544 5542 5539 5536 5534 5532 5530 5527 5525 5523 5520 5518 5516 5514 5511 5509 5507 5505 5503 5502 5501 5500 5499 5498 5498 5498 5498 5498 5498 5498 5499